Location: Arbon
(43.0005°N, 0.7472°E)
Time: 11:59:31
(UTC+00:00)

NOSS 3-4 (A) - Pass Details

Date: 22 April 2026
Orbit: 769 x 1442 km, 63.4° (Epoch: 10 January)

Event Time Altitude Azimuth Distance (km) Brightness Sun altitude
Rises 19:20:21 0° 229° (SW) 3,228 6.6 -6.4°
Reaches altitude 10° 19:22:44 10° 234° (SW) 2,315 5.9 -6.8°
Maximum altitude 19:27:52 55° 312° (NW) 970 4.0 -7.7°
Drops below altitude 10° 19:33:30 10° 30° (NNE) 2,539 5.7 -8.6°
Sets 19:36:14 0° 35° (NE) 3,570 6.4 -9.1°
